STARLINK-35675, 67188

Orbit data source: Space-Track

STARLINK-35675, 67188 is a payload satellite owned by SpaceX/Seattle (US) in LEO that was launched on Wed, 17 Dec 2025 UTC via an FALCON 9 launch vehicle from the Air Force Eastern Test Range (AFETR). Payload-class satellites include a variety of spacecraft equipped with specific instruments for various scientific and technological missions. These include communications satellites like Starlink; space stations such as the ISS; scientific satellites like the Hubble; Earth observation satellites from companies like Planet Labs, Umbra, and HawkEye 360; GPS; miniature CubeSats for education and research; and military/defense satellites.

Loading next visibility...
Identifier
67188, 2025-303AB
Orbit
LEO
Country
Flag of USUS
Related business
Manufacturer
SpaceX/Seattle
Mission
Operational Commercial Communications
Bus & Motor
STARLINK V2MO, Unknown motor
Mass
575 kg wet, ~530 kg dry
Launch date (UTC)
2025-12-17 (6 months ago)
Launch vehicle
FALCON 9
Launch site
Air Force Eastern Test Range (AFETR)
Object type
Payload
Rocket body
Debris
Shape & HBR
Box + 2 Pan, 17.7 m
Radar Cross Section
36.964 m², Large (>1 m²)

Expand to show TLE details & history
Last TLE update: 18 hours ago

TLE from 18 hours ago
0 STARLINK-35675
1 67188U 25303AB  26171.10841312  .00015203  00000-0  56051-3 0  9991
2 67188  43.0048  92.7478 0001263 280.9024  79.1686 15.27599741 28394
Epoch: 2026-06-20T02:36Z
TLE epoch observation values (Epoch: 2026-06-20T02:36:06.893Z)
Latitude
0.00001°
Longitude
145.39132°
Altitude
482.603 km
Speed
7.626 km/s
True Right ascension
06h 10m 59s
True Declination
0° 00' 00"
Sunlit
Object was in daylight at epoch
Visualization orbit readout
Latitude
Unknown
Longitude
Unknown
Altitude
Unknown
Speed
Unknown
Apparent Right ascension
Unknown
Apparent Declination
Unknown
Sunlit
N/A
Visualization observer readout
Local Sidereal Time
07:16:00
Azimuth
Unknown
Elevation
Unknown
Doppler factor
Unknown
Orbital elements
Apogee altitude
485.801 km
Perigee altitude
484.068 km
Semi-major axis
6,863.071 km
Eccentricity
0.00013
Inclination
43.0048°
RAAN
92.7478°
Arg. of periapsis
280.9024°
True anomaly
79.18282°
Mean anomaly
79.1686°
Eccentric anomaly
79.17571°
Mean motion
3.81738 °/min
Orbital period
94.31 mins
BSTAR
0.00056051
Loading maneuver chart data...
Computing Atmospheric mass density...
Loading historical data...
Loading historical data...
Loading historical data...
Loading historical data...
Loading historical data...
Loading historical data...
Loading historical data...

Documentation

Showing up to 5 results
|